Theta_e
346 348 345 348 343 339 338 338 340 345 346 349 348 348 346 344 342 341 343 336 341 342 339 341 342 342 342 341 341 339 336 336 338 337 337 337 338 338 337 342 341 340 340
340 345 343 344 343 340 339 342 343 346 347 346 346 345 343 343 341 340 342 342 335 337 337 337 339 340 343 344 344 341 337 335 336 337 338 338 338 338 341 339 337 339 341
342 343 343 340 344 341 342 343 344 344 347 345 345 345 346 345 343 343 344 343 343 338 335 334 334 335 336 340 343 343 339 337 337 338 339 340 340 342 342 343 339 340 341
345 342 346 345 342 338 343 344 347 347 346 346 347 347 347 345 344 343 344 344 345 345 344 340 336 336 337 339 341 343 342 340 339 339 339 340 340 341 342 343 342 339 338
345 339 346 345 341 342 345 347 347 345 347 346 345 346 347 347 347 344 345 345 346 345 346 345 342 341 340 340 342 343 345 348 345 343 341 340 339 338 336 336 337 342 337
346 344 345 344 342 344 346 348 345 344 345 345 345 345 345 347 347 347 346 346 345 346 346 347 347 347 344 343 342 341 341 342 342 343 343 342 340 339 336 334 333 335 337
346 347 346 343 342 345 346 344 345 343 347 344 346 345 345 345 346 346 346 346 346 346 346 347 346 347 347 344 343 343 343 342 342 342 343 343 343 343 342 341 336 333 331
345 347 346 347 343 347 346 344 343 348 349 343 345 346 344 343 342 342 342 344 345 345 345 346 343 341 342 345 343 343 343 344 344 344 345 345 345 345 345 345 343 339 334
347 348 346 348 346 348 350 347 346 345 347 346 342 347 346 346 345 343 344 344 340 344 344 343 341 341 341 342 343 345 343 343 343 344 344 344 345 345 345 346 346 346 342
347 347 347 347 346 349 347 347 346 347 343 346 347 344 345 346 347 347 346 346 346 345 346 347 346 344 342 344 344 345 347 349 348 348 347 347 346 346 345 345 345 347 346
350 349 350 348 348 349 347 346 345 345 347 348 348 347 346 347 347 348 348 346 348 347 347 345 346 345 349 348 350 351 354 352 352 353 352 352 352 353 352 347 346 353 350
352 350 349 347 348 348 347 348 346 346 348 350 352 349 348 350 349 348 348 348 348 346 346 348 350 351 352 353 354 353 352 354 350 347 343 343 346 349 350 353 352 349 351
353 352 347 349 349 347 349 349 346 348 350 354 353 351 352 353 353 351 350 349 349 347 346 348 349 352 353 356 356 351 357 351 352 345 345 353 356 357 357 356 355 352 351
353 351 349 348 348 348 348 350 352 353 351 352 353 353 354 352 353 353 353 352 351 349 349 350 348 352 354 357 355 355 358 352 345 345 348 355 356 356 356 355 353 349 349
352 350 349 347 349 350 349 349 353 350 351 354 355 351 352 353 352 352 353 352 352 353 351 351 352 353 354 354 355 357 358 349 348 349 351 357 354 356 356 354 349 339 334
346 350 350 349 349 350 351 350 352 351 349 353 353 354 353 353 351 353 353 353 352 353 354 353 352 354 355 354 354 357 356 352 350 350 350 356 355 355 354 352 342 333 335
345 347 350 351 350 351 353 350 351 352 352 355 354 353 354 352 353 353 355 355 355 354 353 351 354 354 357 358 357 356 354 352 351 350 349 355 356 355 353 348 337 335 335
345 345 349 350 351 353 352 349 348 353 354 353 354 355 354 353 355 354 354 356 355 357 356 356 355 355 356 358 359 358 355 351 353 350 348 352 354 354 354 347 334 338 334
345 346 347 347 351 352 353 350 352 355 355 355 354 354 354 355 356 355 357 356 355 356 357 356 355 354 355 356 355 354 354 354 350 350 348 351 352 353 353 344 333 339 335
342 346 345 345 346 350 352 354 353 354 355 355 355 354 353 354 355 355 355 356 357 358 356 356 354 353 353 354 356 352 348 348 350 351 353 352 353 352 353 343 333 338 338
345 342 345 348 350 351 353 353 353 355 354 356 356 355 353 351 348 350 351 351 355 354 353 352 352 351 350 351 352 350 349 349 349 354 353 354 355 348 348 341 334 335 341
348 348 348 346 347 349 348 347 349 355 356 356 356 355 353 350 349 348 347 346 347 353 353 351 350 350 354 353 349 350 351 352 350 353 355 354 356 350 347 343 335 333 337
348 349 349 348 347 343 345 345 345 352 355 356 354 355 355 353 350 351 350 348 348 348 348 350 353 353 353 353 354 355 353 354 353 352 355 356 356 352 349 345 338 332 335
348 348 349 349 349 347 342 336 339 344 352 355 355 354 354 354 354 352 354 354 354 353 352 350 349 351 354 354 355 354 354 354 353 353 357 358 358 354 344 339 340 332 333
348 348 348 349 349 348 346 343 337 344 347 351 352 353 353 352 348 347 351 354 354 352 349 350 348 349 350 350 350 351 352 352 351 352 358 358 360 354 343 339 335 331 333
346 347 347 348 348 349 347 346 344 346 344 344 348 350 350 348 345 343 349 353 353 351 351 351 353 349 347 347 349 349 351 352 351 354 357 358 359 355 351 340 339 331 330
Wind_Speed
7 7 7 7 6 6 6 4 4 2 4 5 4 3 3 4 3 3 2 0 0 1 2 3 3 4 4 5 4 5 5 5 6 7 8 8 8 9 8 8 8 8 8
7 6 7 6 5 4 4 4 3 2 3 5 4 4 4 3 2 2 1 2 1 2 2 3 4 4 5 6 6 7 7 8 8 8 8 9 9 9 9 9 8 6 9
6 6 6 4 5 4 4 5 4 1 4 5 4 4 3 2 2 1 1 2 3 5 3 4 4 5 5 6 7 8 9 10 10 10 10 10 10 10 10 10 10 7 10
4 6 6 5 5 5 6 6 3 2 3 6 4 3 2 3 3 3 3 3 3 3 6 6 6 7 7 8 8 8 9 10 11 12 12 13 13 12 11 11 10 10 10
4 5 5 7 6 8 6 5 3 3 3 4 4 1 3 4 4 4 5 6 5 6 6 7 8 9 9 9 10 10 11 12 13 13 13 14 14 14 13 13 11 10 9
4 5 5 9 9 6 6 4 3 2 3 2 3 3 4 5 5 6 7 7 7 7 8 9 9 9 11 12 12 12 13 13 14 15 15 15 15 15 14 13 12 12 10
4 5 7 9 10 6 5 5 4 3 2 2 4 3 3 4 6 6 7 8 8 9 9 10 10 9 10 13 12 12 13 13 14 15 16 17 17 17 16 14 13 12 10
5 5 9 8 10 7 6 6 4 1 1 2 3 3 3 0 3 4 6 6 7 7 8 9 10 11 12 12 12 13 13 14 16 17 19 20 21 21 20 18 17 14 13
5 6 7 6 7 7 6 6 4 2 2 1 1 2 1 3 6 2 3 4 5 6 6 7 9 10 11 12 13 14 16 18 19 19 19 20 21 22 22 20 18 16 16
9 6 7 4 5 4 8 7 4 2 2 2 1 1 1 2 3 2 3 5 5 6 7 7 9 10 11 13 14 15 15 15 15 15 16 17 19 20 21 24 23 16 16
5 5 7 7 5 6 7 6 4 3 1 1 1 2 1 1 1 2 4 8 6 8 9 10 9 8 11 13 13 15 16 17 17 18 19 20 20 20 19 19 19 19 16
7 6 6 7 5 5 7 7 6 4 2 2 1 2 3 3 4 4 3 6 6 7 7 8 10 11 10 10 13 18 17 16 16 19 21 21 20 18 16 14 14 13 14
9 10 9 8 8 7 8 7 7 6 4 2 1 1 1 3 4 4 4 6 5 5 4 1 5 11 11 12 14 18 17 12 21 22 22 19 18 16 16 16 15 15 14
11 11 11 10 8 8 8 8 6 5 5 4 4 2 1 1 2 4 5 6 5 4 5 4 5 10 13 13 16 17 14 14 22 21 21 14 18 18 16 14 17 19 16
9 12 12 11 10 8 6 8 7 7 7 6 5 5 4 3 3 3 3 3 5 6 6 4 7 10 14 15 16 15 12 20 22 22 19 13 17 17 16 16 22 23 17
13 11 13 14 12 11 10 10 8 9 9 7 6 7 7 5 4 4 4 4 4 6 5 8 11 13 17 15 16 14 14 17 19 20 18 12 15 19 19 21 26 23 18
17 15 15 14 14 15 13 13 12 9 10 8 8 7 8 8 6 6 6 6 6 6 10 13 12 14 15 15 16 15 13 14 15 19 18 12 16 21 22 24 26 24 15
21 18 18 16 15 16 17 17 15 12 12 11 10 9 9 8 8 7 7 8 8 8 10 13 13 14 14 15 16 16 14 14 14 19 17 13 17 22 23 24 23 22 14
25 23 21 17 15 16 17 18 17 15 15 14 12 11 11 9 10 9 9 9 10 9 10 12 16 14 15 15 17 14 14 15 15 19 15 13 19 20 21 22 20 19 14
27 26 26 24 21 17 18 17 17 17 17 17 15 13 13 12 12 12 11 11 10 10 11 13 15 16 15 15 13 15 19 16 18 11 10 11 18 16 17 18 18 15 11
28 29 27 25 22 21 19 20 19 18 17 16 17 16 15 15 15 15 13 13 12 13 14 15 16 16 16 14 15 15 16 18 18 6 11 13 9 8 12 13 15 11 8
26 26 27 27 26 25 25 26 22 18 18 17 18 18 18 18 17 17 17 17 17 15 16 16 17 16 17 15 15 14 16 16 11 7 14 14 10 5 8 10 13 8 5
23 24 26 26 30 33 32 33 29 23 19 19 21 20 19 18 20 18 17 18 19 20 22 21 20 19 21 17 15 16 15 15 16 17 11 11 5 4 7 9 11 8 3
23 25 25 24 27 30 37 38 36 33 26 24 24 25 24 23 22 22 18 18 18 18 20 22 23 23 20 17 15 16 15 15 16 14 7 6 5 4 4 5 8 7 4
23 24 24 24 26 29 32 34 35 29 30 31 30 29 28 29 30 30 25 21 20 22 20 22 24 25 25 24 20 16 16 15 15 12 8 10 5 3 2 2 5 7 3
22 22 24 25 26 30 32 34 32 28 30 32 31 31 35 37 37 34 31 24 23 25 20 18 19 22 24 24 21 21 18 17 16 11 7 8 5 4 3 3 4 2 2
Wind_Direction
139 143 141 132 132 122 140 135 124 86 47 38 42 78 70 51 60 63 71 203 224 338 336 335 333 334 341 334 325 328 331 330 330 332 330 327 328 329 330 326 321 326 326
149 156 150 148 151 144 143 137 132 87 39 17 54 74 59 50 60 76 46 349 358 324 317 315 321 321 307 314 315 315 318 318 317 316 316 316 318 320 327 319 319 339 315
184 173 166 178 173 170 158 153 143 114 42 42 100 93 81 21 347 343 348 323 326 346 338 332 326 309 311 311 309 309 311 313 312 312 313 313 314 317 312 318 318 310 308
207 200 208 185 179 168 159 150 140 108 60 53 73 75 29 334 313 323 300 294 297 315 322 340 326 319 317 317 314 312 313 316 316 317 317 317 317 310 308 306 307 309 310
198 185 174 182 167 148 146 144 140 112 80 57 44 8 292 295 292 295 288 293 289 295 298 308 322 320 318 317 316 313 312 308 313 316 318 317 315 313 310 306 304 300 304
167 162 176 181 172 157 148 143 147 104 74 34 357 323 296 280 285 289 292 293 289 293 295 302 307 311 320 319 319 316 313 313 315 316 317 316 314 312 308 305 303 299 299
169 167 163 164 171 176 172 147 135 112 61 22 341 335 304 287 285 288 288 293 295 298 296 303 309 307 312 322 322 320 322 323 321 320 318 315 311 307 305 302 299 292 290
185 203 172 165 166 166 160 158 138 107 54 56 8 317 6 260 333 296 295 302 306 306 306 309 318 328 324 314 321 323 321 321 321 321 320 318 317 314 308 301 297 291 281
184 178 174 160 180 178 184 187 175 167 146 101 33 349 325 15 336 343 339 342 339 329 333 339 345 332 333 331 331 329 336 333 327 320 318 319 318 316 313 304 296 291 284
165 179 181 175 179 176 174 175 181 171 135 101 54 8 10 326 348 7 26 8 356 347 347 349 331 333 341 339 339 354 356 354 351 345 337 327 318 311 301 303 305 304 277
185 182 179 191 200 203 189 200 209 182 124 122 40 19 347 323 341 339 24 19 28 27 24 12 358 22 24 29 19 1 4 1 354 353 353 347 335 326 314 306 303 294 288
189 200 185 194 205 213 218 231 239 232 217 148 81 17 14 16 27 12 355 5 354 5 16 49 51 36 22 12 4 0 359 5 20 1 352 342 331 334 339 337 327 312 288
199 207 204 216 221 233 228 235 236 238 231 215 193 84 57 27 32 17 3 6 345 351 354 353 17 17 9 5 355 355 0 11 2 358 360 4 18 15 1 354 359 354 342
211 210 216 226 210 214 220 220 223 230 236 237 248 241 270 323 358 9 6 353 335 335 336 338 350 356 354 350 349 360 352 357 355 360 360 7 7 1 0 2 350 337 327
221 220 217 226 231 219 212 225 230 235 244 257 254 257 260 269 292 305 316 333 331 330 332 330 331 338 345 342 343 353 358 351 359 3 1 6 4 2 358 346 340 335 326
227 224 223 229 237 234 227 228 225 234 243 247 245 249 255 262 273 275 275 279 277 299 302 314 317 321 331 335 336 347 344 357 349 358 358 353 356 0 356 350 350 352 349
225 231 222 230 240 239 228 230 227 224 232 233 241 245 247 256 256 262 265 267 267 269 286 301 307 319 321 326 333 339 342 345 345 350 352 345 348 353 358 356 357 3 1
231 228 227 239 236 233 236 234 236 226 230 232 235 238 244 245 251 253 258 260 268 268 277 295 309 313 313 317 324 333 335 342 351 341 352 345 348 348 356 358 4 13 20
234 228 226 231 231 230 232 238 242 240 238 239 238 238 242 241 245 246 253 266 271 271 272 286 299 304 307 315 321 327 331 336 345 337 345 348 344 344 356 360 14 23 41
238 234 233 234 235 232 227 233 241 246 245 242 239 240 240 241 246 253 262 263 266 267 276 280 289 297 302 310 314 323 327 334 335 342 333 328 332 343 353 3 18 30 50
238 239 238 236 233 230 228 230 236 239 245 239 235 240 243 244 252 253 256 261 262 267 274 279 285 291 295 307 314 318 316 324 333 321 336 329 328 327 348 6 18 30 54
240 239 237 235 232 234 235 235 236 232 237 238 234 239 244 252 256 258 261 264 260 261 268 274 279 283 286 294 305 308 314 324 329 332 331 325 314 314 337 359 12 25 51
238 237 238 238 237 237 236 241 240 235 235 235 237 237 242 247 255 256 262 267 267 265 262 262 265 268 278 286 296 299 303 304 301 306 307 306 292 286 322 340 7 15 35
237 238 239 238 241 242 242 244 244 242 240 238 238 242 243 245 245 253 253 257 263 266 264 262 259 266 269 279 281 286 289 293 298 300 275 282 293 284 300 323 345 356 27
243 239 240 238 237 245 245 246 244 238 241 240 242 243 243 248 252 257 255 256 263 266 267 268 263 269 274 277 277 273 275 286 295 294 275 275 265 248 274 269 318 349 36
240 243 243 241 241 245 250 251 244 234 239 242 244 245 249 248 255 257 255 251 258 262 266 262 267 272 273 270 269 263 262 266 277 288 259 236 246 237 236 216 263 323 35